AG6V Weather Reports


Display with metric or nautical units.
time (UTC)temp
F
wind
direction
speed
MPH
gust
MPH
rain 1hr
in
rain 24hr
in
rain mn
in
humidity
%
barometer
mb
20260505051556 57 326 0.0 1.0 0.00 0.00 0.00 77 1011.0
20260505041554 59 266 0.0 7.0 0.00 0.00 0.00 72 1010.4
20260505034553 60 194 0.0 0.0 0.00 0.00 0.00 71 1009.9
20260505033052 60 187 0.0 0.0 0.00 0.00 0.00 70 1009.6
20260505031558 61 180 0.0 3.0 0.00 0.00 0.00 68 1009.7
20260505030057 63 146 0.0 3.0 0.00 0.00 0.00 66 1009.6
20260505024553 64 161 0.0 0.0 0.00 0.00 0.00 65 1009.6
20260505023051 65 153 0.0 0.0 0.00 0.00 0.00 66 1009.4
20260505021549 66 88 0.0 3.0 0.00 0.00 0.00 64 1009.5
20260505020051 67 101 0.0 0.0 0.00 0.00 0.00 63 1009.4
20260505014602 69 130 0.0 0.0 0.00 0.00 0.00 63 1009.4
20260505013047 70 165 0.0 0.0 0.00 0.00 0.00 62 1009.4
20260505011551 71 202 0.0 6.0 0.00 0.00 0.00 58 1009.5
20260505010045 73 183 0.0 1.0 0.00 0.00 0.00 52 1009.7
20260505004545 76 198 0.0 0.0 0.00 0.00 0.00 45 1009.7
20260505003044 77 187 0.0 7.0 0.00 0.00 0.00 44 1009.6
20260505001545 77 161 0.0 0.0 0.00 0.00 0.00 46 1009.7
20260505000047 78 193 0.0 0.0 0.00 0.00 0.00 45 1009.8
20260504234541 79 227 0.0 3.0 0.00 0.00 0.00 44 1009.9
20260504233041 80 168 0.0 1.0 0.00 0.00 0.00 44 1010.0
20260504231541 80 232 0.0 0.0 0.00 0.00 0.00 44 1010.0
20260504230045 81 111 0.0 0.0 0.00 0.00 0.00 44 1010.1
20260504224545 81 312 0.0 0.0 0.00 0.00 0.00 46 1010.1
20260504223038 81 338 0.0 0.0 0.00 0.00 0.00 45 1010.2
20260504221539 81 16 0.0 0.0 0.00 0.00 0.00 47 1010.3
20260504220037 81 217 0.0 0.0 0.00 0.00 0.00 46 1010.3
20260504214536 82 216 0.0 0.0 0.00 0.00 0.00 44 1010.5
20260504213035 82 216 0.0 0.0 0.00 0.00 0.00 47 1010.5
20260504211534 81 216 0.0 0.0 0.00 0.00 0.00 47 1010.6
20260504210037 80 216 0.0 0.0 0.00 0.00 0.00 47 1010.6
20260504204532 79 216 0.0 0.0 0.00 0.00 0.00 49 1010.8
20260504203026 77 216 0.0 0.0 0.00 0.00 0.00 50 1010.8
20260504201522 77 318 0.0 0.0 0.00 0.00 0.00 50 1010.9
20260504200019 75 318 0.0 0.0 0.00 0.00 0.00 50 1010.9
20260504194517 75 273 0.0 0.0 0.00 0.00 0.00 51 1010.9
20260504193016 74 273 0.0 0.0 0.00 0.00 0.00 57 1010.9
20260504191512 73 42 0.0 0.0 0.00 0.00 0.00 57 1011.0
20260504190109 71 42 0.0 0.0 0.00 0.00 0.00 63 1010.9
20260504184504 70 42 0.0 0.0 0.00 0.00 0.00 66 1010.8
20260504183007 69 43 0.0 0.0 0.00 0.00 0.00 65 1010.8
20260504181605 69 43 0.0 0.0 0.00 0.00 0.00 61 1011.0
20260504180116 69 43 0.0 0.0 0.00 0.00 0.00 61 1010.9
20260504174556 69 45 0.0 0.0 0.00 0.00 0.00 60 1011.1
20260504173106 68 45 0.0 0.0 0.00 0.00 0.00 65 1010.9
20260504171551 64 45 0.0 0.0 0.00 0.00 0.00 66 1011.0
20260504081550 57 274 0.0 0.0 0.00 0.00 0.00 72 1009.9